EW7240 Weather Reports


time (UTC)temp
F
wind
direction
speed
knots
gust
knots
rain 1hr
in
rain 24hr
in
rain mn
in
humidity
%
barometer
mb
20260906211508 85 130 12.2 16.5 0.00 0.00 0.00 45 1005.2
20260906210008 84 117 13.0 17.4 0.00 0.00 0.00 49 1005.3
20260906204503 84 126 12.2 18.2 0.00 0.00 0.00 48 1005.5
20260906203004 83 113 9.6 19.1 0.00 0.00 0.00 50 1005.5
20260906201501 83 131 7.8 15.6 0.00 0.00 0.00 50 1005.6
20260906200108 83 107 9.6 15.6 0.00 0.00 0.00 50 1005.7
20260906194558 83 107 9.6 15.6 0.00 0.00 0.00 50 1005.9
20260906193058 84 90 8.7 13.9 0.00 0.00 0.00 50 1006.1
20260906191554 83 91 6.1 11.3 0.00 0.00 0.00 54 1006.5
20260906184603 80 95 5.2 9.6 0.00 0.00 0.00 55 1007.0
20260906183051 82 117 6.1 9.6 0.00 0.00 0.00 51 1007.2
20260906181550 81 59 3.5 12.2 0.00 0.00 0.00 54 1007.5
20260906180046 81 77 5.2 9.6 0.00 0.00 0.00 50 1007.6
20260906174545 80 69 2.6 7.0 0.00 0.00 0.00 52 1007.9
20260906173042 79 70 3.5 10.4 0.00 0.00 0.00 52 1008.1
20260906171545 80 32 3.5 7.0 0.00 0.00 0.00 53 1008.3
20260906170038 78 119 0.9 6.1 0.00 0.00 0.00 54 1008.4
20260906164539 78 97 2.6 6.1 0.00 0.00 0.00 54 1008.4
20260906163032 77 106 2.6 5.2 0.00 0.00 0.00 55 1008.4
20260906161531 76 55 2.6 8.7 0.00 0.00 0.00 55 1008.7
20260906160028 75 5 3.5 7.8 0.00 0.00 0.00 55 1008.7
20260906154529 74 5 3.5 11.3 0.00 0.00 0.00 55 1008.7
20260906153026 73 347 5.2 8.7 0.00 0.00 0.00 57 1008.6
20260906151521 72 351 5.2 7.8 0.00 0.00 0.00 58 1008.7
20260906150015 71 294 5.2 7.8 0.00 0.00 0.00 61 1008.7
20260906144514 70 281 2.6 6.1 0.00 0.00 0.00 62 1008.5
20260906143012 68 309 3.5 5.2 0.00 0.00 0.00 64 1008.5
20260906141514 67 234 0.0 2.6 0.00 0.00 0.00 68 1008.5
20260906140002 65 225 0.0 1.7 0.00 0.00 0.00 71 1008.4
20260906134500 64 225 0.9 2.6 0.00 0.00 0.00 72 1008.3
20260906133100 62 225 0.9 3.5 0.00 0.00 0.00 78 1008.3
20260906131601 60 226 0.0 1.7 0.00 0.00 0.00 81 1008.3
20260906130146 58 226 0.9 1.7 0.00 0.00 0.00 85 1008.1
20260906124608 57 225 0.0 0.9 0.00 0.00 0.00 88 1008.1
20260906123057 56 225 0.0 2.6 0.00 0.00 0.00 88 1007.7
20260906121605 57 225 0.9 2.6 0.00 0.00 0.00 87 1007.7
20260906120105 57 224 0.0 2.6 0.00 0.00 0.00 87 1007.6
20260906114549 58 224 0.0 0.0 0.00 0.00 0.00 87 1007.6
20260906113053 58 225 0.0 1.7 0.00 0.00 0.00 86 1007.6
20260906111546 58 165 0.9 4.3 0.00 0.00 0.00 85 1007.5
20260906110044 59 165 3.5 4.3 0.00 0.00 0.00 86 1007.5
20260906104543 59 130 2.6 4.3 0.00 0.00 0.00 85 1007.5
20260906103051 58 224 1.7 2.6 0.00 0.00 0.00 87 1007.3
20260906101541 58 224 0.9 2.6 0.00 0.00 0.00 87 1007.1
20260906100039 58 225 0.0 1.7 0.00 0.00 0.00 86 1007.0
20260906094535 59 225 1.7 4.3 0.00 0.00 0.00 84 1007.0
20260906093034 60 290 0.9 5.2 0.00 0.00 0.00 83 1007.0
20260906091531 61 186 7.0 8.7 0.00 0.00 0.00 83 1006.7
20260906090031 61 145 6.1 9.6 0.00 0.00 0.00 83 1006.8
20260906084528 61 143 7.0 9.6 0.00 0.00 0.00 82 1006.9
20260906083025 62 148 5.2 7.8 0.00 0.00 0.00 81 1006.9
20260906081526 63 146 3.5 7.0 0.00 0.00 0.00 80 1006.9
20260906080028 62 175 1.7 2.6 0.00 0.00 0.00 81 1006.9
20260906074522 61 175 0.0 5.2 0.00 0.00 0.00 82 1006.9
20260906073021 61 221 2.6 6.1 0.00 0.00 0.00 82 1006.9
20260906071518 62 236 0.0 3.5 0.00 0.00 0.00 79 1007.1
20260906070014 64 304 2.6 4.3 0.00 0.00 0.00 77 1007.0
20260906064517 64 304 0.9 3.5 0.00 0.00 0.00 77 1007.2
20260906063012 64 155 0.9 7.0 0.00 0.00 0.00 76 1007.2
20260906061519 66 173 6.1 9.6 0.00 0.00 0.00 74 1006.7
20260906060004 65 159 7.8 9.6 0.00 0.00 0.00 75 1006.4
20260906054508 66 163 7.0 8.7 0.00 0.00 0.00 74 1006.5
20260906053001 67 166 6.1 7.8 0.00 0.00 0.00 72 1006.5
20260906051500 68 165 7.0 9.6 0.00 0.00 0.00 71 1006.5
20260906050100 67 139 7.8 10.4 0.00 0.00 0.00 72 1006.4
20260906044600 66 178 3.5 5.2 0.00 0.00 0.00 74 1006.5
20260906043102 67 142 6.1 9.6 0.00 0.00 0.00 73 1006.3
20260906041559 68 186 7.0 9.6 0.00 0.00 0.00 73 1006.2
20260906040059 68 166 7.0 8.7 0.00 0.00 0.00 74 1006.1
20260906034604 69 158 6.1 8.7 0.00 0.00 0.00 73 1006.0
20260906033057 70 169 7.0 10.4 0.00 0.00 0.00 72 1006.0
20260906031556 71 140 7.8 10.4 0.00 0.00 0.00 71 1005.9
20260906030056 71 156 5.2 10.4 0.00 0.00 0.00 70 1005.7
20260906024555 72 155 7.0 10.4 0.00 0.00 0.00 68 1005.5
20260906023059 74 138 7.8 12.2 0.00 0.00 0.00 65 1005.5
20260906021554 75 138 11.3 17.4 0.00 0.00 0.00 63 1005.6
20260906020054 76 136 10.4 15.6 0.00 0.00 0.00 60 1005.6
20260906014555 77 155 13.0 20.0 0.00 0.00 0.00 60 1005.5
20260906013053 77 111 3.5 6.1 0.00 0.00 0.00 54 1005.1
20260906011550 79 36 1.7 3.5 0.00 0.00 0.00 48 1005.0
20260906010050 81 306 0.9 1.7 0.00 0.00 0.00 43 1004.9
20260906004550 85 304 0.0 0.9 0.00 0.00 0.00 40 1004.9
20260906003049 85 305 0.9 2.6 0.00 0.00 0.00 37 1004.8
20260906001549 86 305 0.9 2.6 0.00 0.00 0.00 37 1004.8
20260906000048 87 305 1.7 3.5 0.00 0.00 0.00 36 1004.9
20260905234548 87 264 0.9 1.7 0.00 0.00 0.00 35 1004.8
20260905233047 87 264 0.9 3.5 0.00 0.00 0.00 33 1004.8
20260905231547 87 344 0.9 2.6 0.00 0.00 0.00 35 1004.7
20260905230145 87 355 1.7 4.3 0.00 0.00 0.00 35 1004.8
20260905224544 85 298 1.7 7.0 0.00 0.00 0.00 36 1004.8
20260905223043 84 264 1.7 3.5 0.00 0.00 0.00 39 1004.9
20260905221544 86 314 2.6 5.2 0.00 0.00 0.00 37 1004.9
20260905220042 87 194 0.9 3.5 0.00 0.00 0.00 33 1004.9
20260905214540 87 121 3.5 7.0 0.00 0.00 0.00 35 1004.9